sat.trackr.live / text

‹ back to catalog

STARLINK-37495

NORAD 68841 · 2026-094C

PAYLOAD ACTIVE UNKNOWN

§ Identity

Operator
Country
US
Launch date
2026-04-26
Launch site
AFWTR
Launch vehicle
Mass (kg)
RCS (m²)

Purposes: comms

External: N2YO · Heavens-Above · Gunter

§ Orbital elements

Epoch: 2026-05-25T00:07:26.617152Z

Period
92.95 min
Inclination
97.2847°
Eccentricity
0.0001382
Mean motion
15.49238574 rev/d
Perigee alt
418.0 km
Apogee alt
419.9 km
Semi-major
6,797.1 km
B*
9.8651e-4
RAAN
159.5929°
Arg perigee
104.9569°
Mean anomaly
255.1835°
Rev number
448

§ Raw data

STARLINK-374951 68841U 26094C   26145.00516918  .00054026  00000+0  98651-3 0  99942 68841  97.2847 159.5929 0001382 104.9569 255.1835 15.49238574  4487

JSON: /api/v1/satellites/68841 · /tle

For live sub-satellite position, see the globe view (requires WebGL).

§ Visibility from observer

Set your observer location to see the next 7 days of passes ≥ 10°. The values pass through the URL so the page stays shareable.

No JS? Fill the form by hand. The geolocation button needs JavaScript.